Regional Weather Roundup
Issued by NWS

Home | Current Version | Previous Version | Text Only | Print | Product List | Glossary On
Versions: 1 2 3 4 5 6 7 8 9 10 11 12 13 14 15 16 17 18 19 20 21 22 23 24 25 26 27 28 29 30 31 32 33 34 35 36 37 38 39 40 41 42 43 44 45 46 47 48 49 50
000
ASUS43 KBIS 051310
RWRND

NORTH DAKOTA REGIONAL WEATHER ROUNDUP
NATIONAL WEATHER SERVICE BISMARCK ND
800 AM CDT WED AUG 05 2015

NOTE: "FAIR" INDICATES FEW OR NO CLOUDS BELOW 12,000 FEET WITH NO
SIGNIFICANT WEATHER AND/OR OBSTRUCTIONS TO VISIBILITY.


NDZ001>003-009>011-017-051400-
NORTHWEST NORTH DAKOTA

CITY           SKY/WX    TMP DP  RH WIND       PRES   REMARKS
WILLISTON      PTSUNNY   69  60  73 S6        29.91S
MINOT          TSTM      64  60  87 SW5       29.92S
MINOT AFB      TSTM      63  63 100 S3        29.92R
$$

NDZ018>021-031>035-040>046-051400-
SOUTHWEST NORTH DAKOTA

CITY           SKY/WX    TMP DP  RH WIND       PRES   REMARKS
BISMARCK       LGT RAIN  65  62  90 W5        29.96R
DICKINSON      PTSUNNY   63  60  90 VRB3      29.93R
GARRISON         N/A     64  62  93 SE5       29.92F
HETTINGER ARPT CLOUDY    63  61  93 SE3       29.96S
$$

NDZ004>008-012>016-024-026-027-054-051400-
NORTHEAST NORTH DAKOTA

CITY           SKY/WX    TMP DP  RH WIND       PRES   REMARKS
GRAND FORKS    PTSUNNY   59  54  83 S7        30.02F
GRND FRKS AFB  PTSUNNY   59  55  85 S7        30.02F
DEVILS LAKE    CLOUDY    64  52  63 S12       29.98F
$$

NDZ022-023-025-028>030-036>039-047>053-051400-
SOUTHEAST NORTH DAKOTA

CITY           SKY/WX    TMP DP  RH WIND       PRES   REMARKS
FARGO          MOSUNNY   65  55  70 SE8       30.02S
JAMESTOWN      CLOUDY    62  54  74 SE7       29.99F
$$



USA.gov is the U.S. government's official web portal to all federal, state and local government web resources and services.